Stations météo

Publicité
Cottbus, Allemagne (10496): Température de l'air & dewpoint: 17.03.2019 23:00:00 - 23.03.2019 23:00:00 (CET)Cottbus, Allemagne (10496): Température de l'air 5cm & Température de l'air -5cm: 17.03.2019 23:00:00 - 23.03.2019 23:00:00 (CET)Cottbus, Allemagne (10496): Température de l'air -20cm & Température de l'air -100cm: 17.03.2019 23:00:00 - 23.03.2019 23:00:00 (CET)Cottbus, Allemagne (10496): Vitesse du vent & gusts: 17.03.2019 23:00:00 - 23.03.2019 23:00:00 (CET)Cottbus, Allemagne (10496): Direction du vent: 17.03.2019 23:00:00 - 23.03.2019 23:00:00 (CET)Cottbus, Allemagne (10496): reduced air pressure: 17.03.2019 23:00:00 - 23.03.2019 23:00:00 (CET)Cottbus, Allemagne (10496): visibility: 17.03.2019 23:00:00 - 23.03.2019 23:00:00 (CET)Cottbus, Allemagne (10496): Ensoleillement: 17.03.2019 23:00:00 - 23.03.2019 23:00:00 (CET)Cottbus, Allemagne (10496): Quantités de précipitations: 17.03.2019 23:00:00 - 23.03.2019 23:00:00 (CET)
Date & Time tt [°C] td [°C] tt 5cm [°C] tt -5cm [°C] tt -20cm [°C] tt -100cm [°C] ff [km/h] ff [knt] fx [km/h] fx [knt] dd ppp [hPa] vv [km] sd [min] rr [mm]
23.03.2019 23:00:00 7,6 5,5 7,0 8,8 10,9 6,9 7 4 9 5 WSW 1028,7 5 0 0,0
23.03.2019 22:00:00 6,8 4,7 4,1 9,0 11,4 6,9 4 2 7 4 WSW 1028,5 7 0 0,0
23.03.2019 21:00:00 8,1 5,2 4,5 10,2 12,0 6,9 4 2 13 7 NW 1028,3 9 0 0,0
23.03.2019 20:00:00 10,1 5,5 8,1 11,6 12,5 6,9 5 3 26 14 NNW 1027,7 9 0 0,0
23.03.2019 19:00:00 11,9 6,4 10,4 13,3 12,9 6,9 10 5 23 12 NNW 1026,9 7 0 0,0
23.03.2019 18:00:00 13,8 4,3 12,6 15,6 13,1 6,9 10 6 29 16 NW 1025,9 11 22 0,0
23.03.2019 17:00:00 17,0 8,2 17,7 18,3 12,9 6,8 13 7 35 19 NNW 1025,1 8 56 0,0
23.03.2019 16:00:00 20,0 5,1 21,4 20,1 12,4 6,8 13 7 32 17 W 1024,2 24 60 0,0
23.03.2019 15:00:00 20,0 4,9 22,1 21,1 11,7 6,8 13 7 29 15 WNW 1024,3 23 60 0,0
23.03.2019 14:00:00 19,8 6,2 22,7 21,3 10,7 6,8 11 6 27 15 W 1024,6 20 60 0,0
23.03.2019 13:00:00 19,2 7,0 22,9 20,7 9,6 6,8 9 5 23 12 W 1025,0 29 60 0,0
23.03.2019 12:00:00 18,5 7,3 23,4 18,9 8,4 6,8 8 4 27 14 W 1025,3 34 60 0,0
23.03.2019 11:00:00 17,3 7,2 20,5 16,3 7,3 6,8 10 6 24 13 W 1025,4 23 60 0,0
23.03.2019 10:00:00 15,6 7,0 18,2 12,7 6,6 6,8 10 5 18 10 SSW 1025,4 18 60 0,0
23.03.2019 09:00:00 12,1 7,0 13,2 8,2 6,2 6,8 12 6 18 10 SSW 1025,9 10 60 0,0
23.03.2019 08:00:00 8,0 5,7 8,5 5,6 6,1 6,8 4 2 8 4 S 1026,0 5 60 0,0
23.03.2019 07:00:00 2,8 1,9 1,4 3,1 6,4 6,7 3 2 6 3 SE 1026,5 3,5 8 0,0
23.03.2019 06:00:00 2,1 1,6 -0,3 3,1 6,7 6,7 5 3 7 4 E 1026,5 2,8 0 0,0
23.03.2019 05:00:00 2,5 2,1 -0,3 3,5 7,0 6,7 5 3 7 4 E 1026,8 2,5 0 0,0
23.03.2019 04:00:00 3,0 2,5 0,0 3,9 7,3 6,7 5 3 6 4 ESE 1027,1 2,6 0 0,0
23.03.2019 03:00:00 3,9 3,4 0,8 4,5 7,7 6,7 5 3 9 5 E 1027,1 1,6 0 0,0
23.03.2019 02:00:00 5,0 4,6 1,7 5,0 8,0 6,7 6 3 11 6 E 1027,6 1,9 0 0,0
23.03.2019 01:00:00 5,8 5,3 4,5 5,5 8,4 6,7 7 4 12 6 E 1028,4 2,2 0 0,0
23.03.2019 00:00:00 5,7 5,2 3,0 6,0 8,8 6,6 6 4 10 5 E 1029,1 2,2 0 0,0
22.03.2019 23:00:00 6,2 5,6 2,8 6,8 9,3 6,6 5 3 9 5 E 1029,5 2,3 0 0,0
22.03.2019 22:00:00 7,1 6,1 4,3 7,7 9,7 6,6 6 3 15 8 E 1029,8 3,3 0 0,0
22.03.2019 21:00:00 8,1 6,6 6,5 8,7 10,1 6,6 9 5 23 12 E 1030,3 4,6 0 0,0
22.03.2019 20:00:00 9,2 6,9 8,0 9,8 10,5 6,6 13 7 30 16 E 1030,6 6 0 0,0
22.03.2019 19:00:00 10,8 7,6 9,2 11,2 10,8 6,6 12 7 24 13 ENE 1030,6 9 0 0,0
22.03.2019 18:00:00 13,2 7,9 12,2 13,3 10,9 6,6 13 7 23 12 ENE 1030,4 10 47 0,0
22.03.2019 17:00:00 14,3 7,9 16,0 15,3 10,6 6,6 9 5 17 9 ENE 1030,4 10 60 0,0
22.03.2019 16:00:00 14,1 7,9 16,9 16,8 10,1 6,6 9 5 20 11 NE 1031,0 9 60 0,0
22.03.2019 15:00:00 14,4 7,5 17,6 17,6 9,3 6,6 5 3 17 9 ENE 1031,4 9 60 0,0
22.03.2019 14:00:00 13,4 6,9 17,7 17,2 8,3 6,5 6 3 15 8 NNE 1032,2 8 60 0,0
22.03.2019 13:00:00 12,1 7,1 17,6 14,3 7,5 6,5 5 3 13 7 NE 1033,0 8 16 0,0
22.03.2019 12:00:00 11,1 7,4 13,9 11,6 6,9 6,5 5 3 16 9 ENE 1033,8 7 0 0,0
22.03.2019 11:00:00 9,6 7,0 11,0 9,5 6,4 6,5 6 3 16 9 E 1034,1 6 0 0,0
22.03.2019 10:00:00 8,0 6,3 8,5 7,9 6,1 6,5 4 2 12 6 SSE 1034,5 4,7 0 0,0
22.03.2019 09:00:00 6,3 5,7 7,2 6,3 5,9 6,5 3 2 30 16 N 1034,4 3,2 0 0,0
22.03.2019 08:00:00 4,3 4,2 4,9 4,9 5,9 6,5 3 2 40 21 N 1034,1 0,2 0 0,0
22.03.2019 07:00:00 2,8 2,7 3,1 3,5 6,0 6,5 2 1 5 3 SW 1033,9 0,1 0 0,0
22.03.2019 06:00:00 1,3 0,8 -0,7 2,8 6,3 6,4 3 1 4 2 ESE 1033,3 2,5 0 0,0
22.03.2019 05:00:00 1,7 1,3 -0,4 3,2 6,6 6,4 2 1 4 2 NW 1033,1 2,5 0 0,0
22.03.2019 04:00:00 2,0 1,5 0,0 3,6 7,0 6,4 3 2 7 4 SW 1032,6 3,7 0 0,0
22.03.2019 03:00:00 2,6 2,2 0,5 4,1 7,3 6,4 6 3 7 4 SSW 1032,9 3,4 0 0,0
22.03.2019 02:00:00 3,0 2,5 1,2 4,5 7,7 6,4 5 3 7 4 SSW 1033,1 3,5 0 0,0
22.03.2019 01:00:00 3,4 2,8 1,2 5,1 8,1 6,3 0 0 5 3 N 1033,4 3,7 0 0,0
22.03.2019 00:00:00 4,4 3,7 1,8 5,6 8,5 6,3 4 2 5 3 SE 1033,3 4,8 0 0,0
21.03.2019 23:00:00 4,6 3,9 2,3 6,3 8,9 6,3 3 1 4 2 SW 1033,3 4,0 0 0,0
21.03.2019 22:00:00 5,5 4,6 3,1 7,1 9,3 6,3 2 1 3 2 W 1033,0 4,3 0 0,0
21.03.2019 21:00:00 6,7 5,5 4,2 8,0 9,8 6,3 3 2 5 3 ENE 1033,1 5 0 0,0
21.03.2019 20:00:00 8,1 6,2 4,7 9,2 10,2 6,3 0 0 5 3 N 1032,7 9 0 0,0
21.03.2019 19:00:00 10,1 6,8 6,4 10,7 10,6 6,3 3 2 6 4 WSW 1032,5 10 0 0,0
21.03.2019 18:00:00 13,8 6,8 11,2 12,9 10,6 6,3 4 2 14 8 WNW 1032,2 13 44 0,0
21.03.2019 17:00:00 14,7 6,5 15,6 14,9 10,4 6,3 7 4 17 9 WNW 1032,2 15 60 0,0
21.03.2019 16:00:00 15,0 6,3 17,1 16,1 10,0 6,3 9 5 23 13 WNW 1032,4 15 60 0,0
21.03.2019 15:00:00 14,3 6,1 16,6 16,5 9,4 6,2 10 5 24 13 W 1032,9 18 51 0,0
21.03.2019 14:00:00 13,8 5,5 17,3 14,8 8,8 6,2 12 6 26 14 WNW 1033,7 17 8 0,0
21.03.2019 13:00:00 12,9 5,9 14,4 14,6 8,1 6,2 10 5 28 15 WNW 1034,2 17 12 0,0
21.03.2019 12:00:00 13,1 5,1 15,6 14,6 7,4 6,2 14 8 34 18 WNW 1034,7 32 42 0,0
21.03.2019 11:00:00 11,9 5,2 14,4 11,1 6,8 6,2 9 5 19 10 WSW 1034,9 13 8 0,0
21.03.2019 10:00:00 10,1 4,0 11,2 8,9 6,5 6,2 11 6 21 11 WSW 1035,1 12 0 0,0
21.03.2019 09:00:00 9,0 2,9 9,5 7,6 6,4 6,2 14 7 22 12 WSW 1034,8 15 0 0,0
21.03.2019 08:00:00 8,3 2,3 8,4 6,6 6,3 6,2 9 5 15 8 SW 1034,5 17 0 0,0
21.03.2019 07:00:00 7,6 2,1 7,4 6,1 6,4 6,2 9 5 13 7 SSW 1034,2 18 0 0,0
21.03.2019 06:00:00 7,6 2,2 7,2 6,1 6,4 6,2 6 4 10 6 SSW 1034,0 18 0 0,0
21.03.2019 05:00:00 7,9 2,2 7,4 6,1 6,4 6,2 8 5 12 7 SSW 1033,8 19 0 0,0
21.03.2019 04:00:00 7,9 1,9 7,4 6,2 6,5 6,2 6 4 11 6 SSW 1033,7 21 0 0,0
21.03.2019 03:00:00 8,1 1,8 7,6 6,2 6,5 6,2 9 5 14 8 WSW 1033,8 20 0 0,0
21.03.2019 02:00:00 8,3 1,2 7,8 6,2 6,6 6,2 9 5 13 7 SW 1033,9 24 0 0,0
21.03.2019 01:00:00 8,1 0,5 7,6 6,2 6,7 6,2 9 5 13 7 SW 1034,1 29 0 0,0
21.03.2019 00:00:00 8,1 0,3 7,3 6,2 6,8 6,2 6 3 10 6 SW 1034,4 38 0 0,0
20.03.2019 23:00:00 8,1 -0,2 7,5 6,3 6,9 6,2 9 5 13 7 SSW 1033,9 24 0 0,0
20.03.2019 22:00:00 8,3 0,2 7,7 6,3 7,1 6,2 9 5 13 7 SW 1033,5 28 0 0,0
20.03.2019 21:00:00 7,8 0,2 7,0 6,2 7,4 6,2 8 4 11 6 WSW 1033,5 43 0 0,0
20.03.2019 20:00:00 6,8 -0,7 2,9 6,1 7,8 6,2 8 4 13 7 SW 1033,4 47 0 0,0
20.03.2019 19:00:00 8,2 -0,3 4,2 7,5 8,1 6,2 9 5 18 10 SW 1033,2 26 0 0,0
20.03.2019 18:00:00 10,5 -0,8 9,0 9,4 8,3 6,2 15 8 29 16 WSW 1032,5 66 47 0,0
20.03.2019 17:00:00 11,8 -1,8 12,3 11,4 8,2 6,2 18 10 35 19 W 1032,6 40 60 0,0
20.03.2019 16:00:00 12,3 -3,5 13,6 13,0 7,8 6,2 18 10 31 17 W 1032,6 56 60 0,0
20.03.2019 15:00:00 12,5 -0,9 14,9 14,0 7,1 6,3 17 9 34 19 WSW 1032,8 30 60 0,0
20.03.2019 14:00:00 11,8 -2,7 15,1 14,1 6,2 6,3 14 8 31 17 WSW 1033,1 37 60 0,0
20.03.2019 13:00:00 11,0 -2,0 14,5 13,4 5,3 6,3 17 9 34 18 WSW 1033,8 34 60 0,0
20.03.2019 12:00:00 9,9 -1,7 13,6 11,8 4,2 6,3 17 9 33 18 W 1034,1 28 59 0,0
20.03.2019 11:00:00 8,5 -0,2 10,0 9,4 3,4 6,3 14 8 29 15 WSW 1034,3 57 56 0,0
20.03.2019 10:00:00 7,3 -0,5 8,9 5,3 2,9 6,3 15 8 23 13 WSW 1034,1 34 60 0,0
20.03.2019 09:00:00 4,6 0,3 5,5 0,3 3,0 6,3 9 5 17 9 WSW 1034,0 34 53 0,0
20.03.2019 08:00:00 1,2 -1,4 1,6 0,2 3,1 6,3 8 4 13 7 SW 1033,7 15 60 0,0
20.03.2019 07:00:00 -2,8 -4,0 -3,8 0,2 3,3 6,3 7 4 8 5 SW 1033,2 19 2 0,0
20.03.2019 06:00:00 -3,5 -4,5 -5,8 0,3 3,4 6,3 4 2 7 4 SSW 1032,7 20 0 0,0
20.03.2019 05:00:00 -3,1 -3,8 -5,5 0,5 3,6 6,3 6 4 8 5 SW 1032,3 17 0 0,0
20.03.2019 04:00:00 -2,9 -3,6 -4,4 0,6 3,8 6,3 6 3 9 5 SW 1031,8 16 0 0,0
20.03.2019 03:00:00 -2,4 -3,3 -4,2 0,8 4,0 6,3 8 4 9 5 SW 1031,7 16 0 0,0
20.03.2019 02:00:00 -1,9 -2,7 -3,7 1,0 4,3 6,3 6 3 9 5 WSW 1031,6 17 0 0,0
20.03.2019 01:00:00 -1,6 -2,4 -3,5 1,1 4,6 6,3 7 4 10 5 WSW 1031,5 21 0 0,0
20.03.2019 00:00:00 -1,2 -2,1 -3,1 1,3 4,9 6,3 6 4 8 5 WSW 1031,0 26 0 0,0
19.03.2019 23:00:00 -0,6 -1,6 -3,0 1,5 5,3 6,3 7 4 10 5 WSW 1030,7 30 0 0,0
19.03.2019 22:00:00 0,3 -1,6 -2,4 2,3 5,7 6,3 6 3 11 6 SW 1030,1 31 0 0,0
19.03.2019 21:00:00 3,0 -1,1 0,2 3,4 6,1 6,3 8 4 11 6 SW 1029,4 37 0 0,0
19.03.2019 20:00:00 2,1 -2,5 -1,5 3,7 6,5 6,3 5 3 11 6 WSW 1029,0 51 0 0,0
19.03.2019 19:00:00 5,6 -2,5 2,2 5,4 6,7 6,3 9 5 28 15 W 1028,2 70 0 0,0
19.03.2019 18:00:00 7,0 -2,0 5,8 6,9 6,8 6,4 10 6 35 19 W 1027,2 70 6 0,0
19.03.2019 17:00:00 7,7 -2,8 7,6 8,2 6,7 6,4 16 8 36 19 W 1026,6 70 29 0,0
19.03.2019 16:00:00 8,3 -2,6 9,7 9,1 6,5 6,4 11 6 23 12 WNW 1026,1 64 13 0,0
19.03.2019 15:00:00 8,0 -2,6 11,2 9,8 6,1 6,4 10 5 25 14 NW 1025,9 70 18 0,0
19.03.2019 14:00:00 7,5 -1,8 9,0 9,1 5,7 6,4 10 6 37 20 NW 1025,7 55 9 0,0
19.03.2019 13:00:00 6,4 -2,0 7,1 6,8 5,4 6,4 13 7 28 15 W 1025,8 48 0 0,0
19.03.2019 12:00:00 6,1 -2,1 6,8 6,5 5,2 6,4 18 10 32 18 WNW 1025,9 48 0 0,0
19.03.2019 11:00:00 6,0 -2,4 6,8 6,9 4,8 6,4 16 9 35 19 W 1025,5 49 0 0,0
19.03.2019 10:00:00 5,5 -0,2 6,5 6,3 4,4 6,4 17 9 37 20 W 1025,0 38 19 0,0
19.03.2019 09:00:00 4,4 0,2 5,9 4,5 4,2 6,4 20 11 35 19 W 1024,3 34 20 0,0
19.03.2019 08:00:00 3,6 0,1 3,9 3,0 4,1 6,4 15 8 56 30 W 1023,9 37 2 0,0
19.03.2019 07:00:00 2,8 -0,2 2,4 2,0 4,2 6,4 14 8 29 16 W 1023,3 34 0 0,0
19.03.2019 06:00:00 2,6 -0,5 1,4 1,8 4,4 6,4 16 9 44 24 W 1022,5 36 0 0,0
19.03.2019 05:00:00 3,1 -0,4 2,5 2,2 4,5 6,4 14 7 29 16 W 1022,1 37 0 0,0
19.03.2019 04:00:00 3,1 -0,5 1,7 2,2 4,6 6,4 16 9 32 17 W 1021,4 40 0 0,0
19.03.2019 03:00:00 3,5 -0,3 3,0 2,5 4,8 6,4 16 9 32 17 WSW 1020,8 46 0 0,0
19.03.2019 02:00:00 3,8 -0,4 3,0 2,3 5,0 6,4 18 10 37 20 WSW 1020,6 51 0 0,0
19.03.2019 01:00:00 3,7 -0,5 2,2 2,3 5,3 6,4 19 10 37 20 W 1019,9 49 0 0,0
19.03.2019 00:00:00 3,9 -0,4 2,5 2,6 5,6 6,4 21 12 36 20 W 1019,4 69 0 0,0
18.03.2019 23:00:00 4,5 -0,3 3,3 3,2 5,9 6,4 22 12 41 22 W 1018,9 61 0 0,0
18.03.2019 22:00:00 4,9 -0,6 4,0 3,5 6,1 6,4 22 12 44 24 W 1018,2 70 0 0,0
18.03.2019 21:00:00 5,8 -0,6 4,7 4,1 6,5 6,4 24 13 49 26 W 1017,4 70 0 0,0
18.03.2019 20:00:00 6,2 -1,1 4,9 4,3 6,8 6,4 22 12 35 19 W 1016,6 70 0 0,0
18.03.2019 19:00:00 5,9 -0,3 4,4 5,4 7,1 6,4 18 10 44 24 WSW 1015,8 70 0 0,0
18.03.2019 18:00:00 7,2 -0,8 5,9 6,8 7,2 6,4 24 13 48 26 W 1014,7 70 44 0,0
18.03.2019 17:00:00 8,7 -0,6 9,7 8,2 7,2 6,3 28 15 48 26 W 1013,9 56 56 0,0
18.03.2019 16:00:00 8,1 1,4 9,2 9,0 7,0 6,3 23 13 51 28 WSW 1013,4 55 35 0,1
18.03.2019 15:00:00 7,6 -0,7 6,1 8,3 6,8 6,3 30 16 51 28 WSW 1013,2 8 9 0,0
18.03.2019 14:00:00 8,3 -1,1 9,0 8,2 6,5 6,3 31 17 48 26 WSW 1013,2 70 3 0,0
18.03.2019 13:00:00 7,3 -1,0 7,7 8,0 6,3 6,3 31 17 50 27 WSW 1013,1 70 10 0,0
18.03.2019 12:00:00 7,4 -0,4 8,5 7,8 6,0 6,3 32 18 51 28 WSW 1012,8 54 11 0,0
18.03.2019 11:00:00 6,7 -0,3 7,4 6,9 5,7 6,3 27 15 54 29 WSW 1012,4 70 0 0,0
18.03.2019 10:00:00 6,2 -0,7 6,5 6,7 5,4 6,3 29 16 56 30 WSW 1012,0 70 32 0,0
18.03.2019 09:00:00 6,3 -0,4 7,6 4,9 5,3 6,3 27 15 48 26 WSW 1011,4 46 38 0,0
18.03.2019 08:00:00 4,5 -0,7 4,9 3,5 5,5 6,3 29 16 46 25 WSW 1010,9 49 45 0,0
18.03.2019 07:00:00 3,7 -0,6 2,8 2,8 5,7 6,3 27 15 37 20 WSW 1010,8 70 0 0,0
18.03.2019 06:00:00 4,0 0,2 2,8 3,3 6,0 6,2 20 11 34 19 WSW 1010,1 47 0 0,0
18.03.2019 05:00:00 4,3 1,2 3,0 3,9 6,2 6,2 17 9 32 18 WSW 1009,6 46 0 0,0
18.03.2019 04:00:00 5,0 1,8 4,2 4,4 6,4 6,2 18 10 33 18 WSW 1009,1 70 0 0,0
18.03.2019 03:00:00 5,3 2,0 4,7 4,6 6,6 6,2 19 10 32 18 WSW 1008,6 68 0 0,0
18.03.2019 02:00:00 5,1 2,0 4,3 4,6 6,8 6,2 16 9 27 15 SW 1008,4 63 0 0,0
18.03.2019 01:00:00 5,0 1,9 4,3 4,8 7,1 6,2 16 8 27 15 WSW 1008,4 69 0 0,0
18.03.2019 00:00:00 5,2 2,2 4,3 5,3 7,4 6,2 15 8 28 15 WSW 1007,7 70 0 0,0
17.03.2019 23:00:00 5,7 2,7 5,0 5,7 7,7 6,1 19 10 28 15 WSW 1007,5 70 0 0,0

tt = Température de l'air
td = dewpoint
tt 5cm = Température de l'air 5cm
tt -5cm = Température de l'air -5cm
tt -20cm = Température de l'air -20cm
tt -100cm = Température de l'air -100cm
ff = Vitesse du vent
fx = gusts
dd = Direction du vent
ppp = reduced air pressure
vv = visibility
sd = Ensoleillement
rr = Quantités de précipitations

stations d'obs. à proximité